Notices

What's New in latest Release from April 7th, 2021:

- Updated Glossary, including Speed of Maximum Gust, and Total Hourly Precipitation

- Updated national and regional climate services offices contacts and prices information

- Addition of station inventory lists for 1981-2010, 1971-2000, and 1961-1990 Normals.

If you haven't already, please take our survey and provide feedback about our website: https://eccc.sondage-survey.ca/f/LanguageSelection.aspx?s=442ca660-fcf1-47c0-95a9-59707d6fd709

Hourly Data Report for March 22, 2010

HALIFAX STANFIELD INT'L A
NOVA SCOTIA

44°52'48.060" N
63°30'00.050" W
145.40 m
8202250
71395
YHZ

Download Data

Hourly Data (March 2010)
Hourly Data Report for March 22, 2010
TIME
LST
Temp Definition
°C
Dew Point Definition
°C
Rel Hum Definition
%
Precip. Amount Definition
mm

Wind Dir Definition
10's deg

Wind Spd Definition
km/h
Visibility Definition
km
Stn Press Definition
kPa
Hmdx Definition


Wind Chill Definition


Weather Definition


00:00 1.6 -0.4 87   18 6 24.1 100.53     Cloudy
01:00 1.5 -0.3 88   12 7 24.1 100.46     Cloudy
02:00 1.3 -0.2 90   13 19 24.1 100.34     Rain Showers
03:00 1.4 0.4 93   13 19 19.3 100.24     Rain Showers
04:00 1.7 1.2 96   16 7 0.8 100.21     Fog
05:00 2.3 1.8 96   14 15 0.8 100.17     Fog
06:00 2.5 2.0 96     0 0.4 100.20     Fog
07:00 2.7 2.3 97   21 4 0.2 100.21     Fog
08:00 2.6 2.3 98   36 7 0.2 100.20     Fog
09:00 3.0 2.7 98     0 0.4 100.27     Fog
10:00 4.1 3.8 98   22 9 6.4 100.28     Fog
11:00 4.5 4.1 97   24 7 6.4 100.31     Fog
12:00 5.9 3.9 87   15 4 24.1 100.23     Mostly Cloudy
13:00 6.4 4.3 86   1 7 19.3 100.27     Cloudy
14:00 7.3 4.5 82   33 7 24.1 100.25     Cloudy
15:00 8.9 3.9 71   33 9 24.1 100.21     Cloudy
16:00 8.9 4.1 72   36 7 24.1 100.23     Cloudy
17:00 9.0 4.0 71   36 6 24.1 100.25     Cloudy
18:00 8.3 3.7 73   5 6 24.1 100.31     Cloudy
19:00 7.6 3.8 77   12 7 24.1 100.33     Cloudy
20:00 6.8 4.6 86   12 6 24.1 100.29     Rain
21:00 6.3 5.1 92   9 6 24.1 100.29     Rain
22:00 6.4 5.3 93   9 7 19.3 100.31     Rain
23:00 6.2 5.3 94   11 11 19.3 100.28     Rain

Notes on Data Quality.

Legend

  • E = Estimated
  • M = Missing
  • NA = Not Available*
  • [empty] = Indicates an unobserved value
Date modified: